Weather History for Imperial, CA

Change the Weather History Date:

Sunday, February 2, 2014

  Actual Average Record
Temperature  
Mean Temperature 50 °F -  
Max Temperature 64 °F 70 °F 85 °F (1954)
Min Temperature 37 °F 43 °F 28 °F (1949)
Degree Days  
Heating Degree Days 14    
Moisture  
Dew Point 20 °F    
Average Humidity 33    
Maximum Humidity 48    
Minimum Humidity 15    
Precipitation  
Precipitation 0.00 in - - ()
Sea Level Pressure  
Sea Level Pressure 30.02 in    
Wind  
Wind Speed 6 mph (SW)    
Max Wind Speed 13 mph    
Max Gust Speed -    
Visibility 10 miles    
Events      
Averages and records for this station are not official NWS values.
T = Trace of Precipitation, MM = Missing Value Source: NWS Daily Summary

Daily Weather History Graph

Daily Weather History Graph

Search for Another Location

Airport:

Trip Planner

Search our weather history database for the weather conditions in past years. The results will help you decide how hot, cold, wet, or windy it might be!

Date:

Astronomy

Feb. 02, 2014 Rise Set
Actual Time 6:36 AM PST 5:15 PM PST
Civil Twilight 6:10 AM PST 5:41 PM PST
Nautical Twilight 5:41 AM PST 6:11 PM PST
Astronomical Twilight 5:12 AM PST 6:40 PM PST
Moon 8:18 AM PST (2/2) 8:49 PM PST (2/2)
Length of Visible Light 11h 31m
Length of Day
10h 39m
Waxing Crescent, 12% of the Moon is Illuminated
Feb 2
Waxing Crescent
Feb 6
First Quarter
Feb 14
Full
Feb 22
Last Quarter
Mar 1
New

Hourly Weather History & Observations

Time (PST) Temp. Windchill Dew Point Humidity Pressure Visibility Wind Dir Wind Speed Gust Speed Precip Events Conditions
12:53 AM 41.0 °F 37.1 °F 21.0 °F 45% 30.06 in 10.0 mi WSW 5.8 mph - N/A   Clear
1:53 AM 37.9 °F 32.1 °F 19.9 °F 48% 30.06 in 10.0 mi West 8.1 mph - N/A   Clear
2:53 AM 39.0 °F 34.0 °F 18.0 °F 43% 30.06 in 10.0 mi West 6.9 mph - N/A   Clear
3:53 AM 37.0 °F 31.6 °F 18.0 °F 46% 30.06 in 10.0 mi West 6.9 mph - N/A   Clear
4:53 AM 37.0 °F 31.0 °F 18.0 °F 46% 30.06 in 10.0 mi WSW 8.1 mph - N/A   Clear
5:53 AM 39.0 °F 33.4 °F 18.0 °F 43% 30.06 in 10.0 mi West 8.1 mph - N/A   Clear
6:53 AM 37.9 °F 32.7 °F 19.9 °F 48% 30.09 in 10.0 mi WSW 6.9 mph - N/A   Clear
7:53 AM 43.0 °F - 17.1 °F 35% 30.10 in 10.0 mi Calm Calm - N/A   Clear
8:53 AM 48.9 °F - 21.0 °F 33% 30.11 in 10.0 mi Calm Calm - N/A   Clear
9:53 AM 55.0 °F - 18.0 °F 23% 30.11 in 10.0 mi NNW 3.5 mph - N/A   Clear
10:53 AM 59.0 °F - 18.0 °F 20% 30.09 in 10.0 mi Calm Calm - N/A   Clear
11:53 AM 63.0 °F - 15.1 °F 16% 30.05 in 10.0 mi Calm Calm - N/A   Clear
12:53 PM 63.0 °F - 16.0 °F 16% 30.01 in 10.0 mi Variable 4.6 mph - N/A   Clear
1:53 PM 63.0 °F - 14.0 °F 15% 29.98 in 10.0 mi ESE 8.1 mph - N/A   Clear
2:53 PM 64.0 °F - 15.1 °F 15% 29.96 in 10.0 mi SE 9.2 mph - N/A   Clear
3:53 PM 63.0 °F - 17.1 °F 17% 29.95 in 10.0 mi SSE 12.7 mph - N/A   Clear
4:53 PM 62.1 °F - 18.0 °F 18% 29.95 in 10.0 mi ESE 6.9 mph - N/A   Clear
5:53 PM 59.0 °F - 25.0 °F 27% 29.95 in 10.0 mi SE 8.1 mph - N/A   Clear
6:53 PM 57.0 °F - 24.1 °F 28% 29.94 in 10.0 mi SE 8.1 mph - N/A   Clear
7:53 PM 53.1 °F - 27.0 °F 37% 29.94 in 10.0 mi Calm Calm - N/A   Clear
8:53 PM 48.9 °F - 27.0 °F 43% 29.95 in 10.0 mi SSW 3.5 mph - N/A   Clear
9:53 PM 46.9 °F - 27.0 °F 46% 29.95 in 10.0 mi SW 3.5 mph - N/A   Clear
10:53 PM 51.1 °F - 25.0 °F 36% 29.95 in 10.0 mi NE 4.6 mph - N/A   Clear
11:53 PM 53.1 °F - 30.9 °F 43% 29.94 in 10.0 mi WNW 5.8 mph - N/A   Clear